Frenchville, ME

11:40 AM EDT on April 28, 2017 (GMT -0400)
Northern Aroostook Regional

Weather History for KFVE - May, 2012

Change the Weather History Date:

Monday, May 28, 2012

  Actual Average Record
Temperature  
Mean Temperature 51 °F 54 °F  
Max Temperature 59 °F 65 °F 77 °F (2003)
Min Temperature 43 °F 44 °F 32 °F (2013)
Degree Days  
Heating Degree Days 14    
Month to date heating degree days 347  
Since 1 July heating degree days 8581  
Cooling Degree Days 0    
Month to date cooling degree days 10  
Year to date cooling degree days 10  
Growing Degree Days 2 (Base 50)    
Moisture  
Dew Point 29 °F    
Average Humidity 44    
Maximum Humidity 68    
Minimum Humidity 27    
Precipitation  
Precipitation 0.00 in 0.12 in 0.51 in (2007)
Month to date precipitation 2.89 2.70  
Year to date precipitation 9.00 9.56  
Sea Level Pressure  
Sea Level Pressure 30.03 in    
Wind  
Wind Speed 9 mph (NNW)    
Max Wind Speed 16 mph    
Max Gust Speed 21 mph    
Visibility 10 miles    
Events      
T = Trace of Precipitation, MM = Missing Value Source: NWS Daily Summary

Daily Weather History Graph

Daily Weather History Graph

Search for Another Location

Airport or City:

Trip Planner

Search our weather history database for the weather conditions in past years. The results will help you decide how hot, cold, wet, or windy it might be!

Date:

Astronomy

May. 28, 2012 Rise Set
Actual Time 4:43 AM EDT 8:18 PM EDT
Civil Twilight 4:04 AM EDT 8:56 PM EDT
Nautical Twilight 3:13 AM EDT 9:48 PM EDT
Astronomical Twilight 2:04 AM EDT 10:58 PM EDT
Moon 12:10 PM EDT 12:35 AM EDT
Length of Visible Light 16h 51m
Length of Day
15h 35m
Waxing Crescent, 48% of the Moon is Illuminated
May 28
Waxing Crescent
May 28
First Quarter
Jun 4
Full
Jun 11
Last Quarter
Jun 19
New

Hourly Weather History & Observations

Time (EDT) Temp. Windchill Dew Point Humidity Pressure Visibility Wind Dir Wind Speed Gust Speed Precip Events Conditions
12:53 AM 52.0 °F - 32.0 °F 47% 30.03 in 10.0 mi WNW 6.9 mph - N/A   Mostly Cloudy
1:53 AM 50.0 °F - 33.1 °F 52% 30.02 in 10.0 mi NW 8.1 mph - N/A   Mostly Cloudy
2:53 AM 50.0 °F - 35.1 °F 57% 30.02 in 10.0 mi NW 9.2 mph - N/A   Mostly Cloudy
3:53 AM 46.0 °F 41.4 °F 34.0 °F 63% 30.02 in 10.0 mi NNW 9.2 mph - N/A   Partly Cloudy
4:53 AM 44.1 °F 39.5 °F 34.0 °F 68% 30.03 in 10.0 mi North 8.1 mph - N/A   Clear
5:53 AM 44.1 °F 38.1 °F 33.1 °F 65% 30.04 in 10.0 mi North 11.5 mph - N/A   Clear
6:53 AM 45.0 °F 39.3 °F 32.0 °F 60% 30.06 in 10.0 mi North 11.5 mph - N/A   Clear
7:53 AM 48.0 °F - 30.9 °F 52% 30.08 in 10.0 mi North 9.2 mph - N/A   Clear
8:53 AM 50.0 °F - 30.0 °F 46% 30.07 in 10.0 mi NNE 6.9 mph - N/A   Clear
9:53 AM 52.0 °F - 28.9 °F 41% 30.06 in 10.0 mi NNE 10.4 mph - N/A   Clear
10:53 AM 55.0 °F - 30.0 °F 38% 30.07 in 10.0 mi NNW 16.1 mph 19.6 mph N/A   Clear
11:53 AM 54.0 °F - 26.1 °F 34% 30.06 in 10.0 mi North 10.4 mph - N/A   Clear
12:53 PM 55.0 °F - 28.9 °F 37% 30.05 in 10.0 mi WNW 10.4 mph - N/A   Clear
1:53 PM 55.0 °F - 27.0 °F 34% 30.05 in 10.0 mi NW 8.1 mph - N/A   Clear
2:53 PM 57.0 °F - 30.0 °F 36% 30.04 in 10.0 mi West 13.8 mph 19.6 mph N/A   Clear
3:53 PM 57.9 °F - 30.9 °F 36% 30.03 in 10.0 mi West 10.4 mph - N/A   Clear
4:53 PM 59.0 °F - 25.0 °F 27% 30.01 in 10.0 mi Variable 3.5 mph - N/A   Clear
5:53 PM 57.0 °F - 27.0 °F 32% 30.01 in 10.0 mi WNW 8.1 mph - N/A   Clear
6:53 PM 55.9 °F - 28.9 °F 36% 30.01 in 10.0 mi NW 8.1 mph - N/A   Clear
7:53 PM 51.1 °F - 26.1 °F 38% 30.02 in 10.0 mi NW 6.9 mph - N/A   Clear
8:53 PM 50.0 °F - 27.0 °F 41% 30.03 in 10.0 mi North 5.8 mph - N/A   Clear
9:53 PM 48.9 °F - 25.0 °F 39% 30.02 in 10.0 mi NNE 6.9 mph - N/A   Partly Cloudy
10:53 PM 50.0 °F - 23.0 °F 35% 30.00 in 10.0 mi ENE 9.2 mph - N/A   Overcast
11:53 PM 48.0 °F - 25.0 °F 41% 29.99 in 10.0 mi East 8.1 mph - N/A   Overcast